H1 CPF 2 NER 2023 9 9 9 252 01 glonass143 H2 2007501 9143 46805 2023 9 9 0 0 0 2023 9 12 23 45 0 900 1 1 0 0 0 1 H9 10 0 60196 0.00000 0 11184865.158 22452277.037 -4568414.558 10 0 60196 900.00000 0 10885310.990 21743076.070 -7665040.028 10 0 60196 1800.00000 0 10309394.835 20761372.132 -10612531.435 10 0 60196 2700.00000 0 9433485.811 19559907.406 -13353522.517 10 0 60196 3600.00000 0 8245823.462 18197105.573 -15834664.709 10 0 60196 4500.00000 0 6747277.583 16734572.030 -18007671.915 10 0 60196 5400.00000 0 4951578.789 15234479.602 -19830265.155 10 0 60196 6300.00000 0 2885008.791 13756950.438 -21266998.342 10 0 60196 7200.00000 0 585562.284 12357544.707 -22289948.959 10 0 60196 8100.00000 0 -1898385.346 11084961.925 -22879260.335 10 0 60196 9000.00000 0 -4509849.490 9979051.420 -23023525.219 10 0 60196 9900.00000 0 -7185373.493 9069215.173 -22720003.583 10 0 60196 10800.00000 0 -9857442.830 8373269.439 -21974670.862 10 0 60196 11700.00000 0 -12457076.034 7896812.041 -20802096.090 10 0 60196 12600.00000 0 -14916484.779 7633120.846 -19225152.697 10 0 60196 13500.00000 0 -17171692.713 7563586.429 -17274567.902 10 0 60196 14400.00000 0 -19165004.427 7658659.504 -14988319.683 10 0 60196 15300.00000 0 -20847222.205 7879271.965 -12410893.301 10 0 60196 16200.00000 0 -22179518.803 8178670.516 -9592412.012 10 0 60196 17100.00000 0 -23134888.955 8504584.526 -6587659.076 10 0 60196 18000.00000 0 -23699119.916 8801635.734 -3455010.339 10 0 60196 18900.00000 0 -23871241.576 9013887.331 -255298.415 10 0 60196 19800.00000 0 -23663438.520 9087424.199 2949369.251 10 0 60196 20700.00000 0 -23100428.890 8972854.915 6096815.154 10 0 60196 21600.00000 0 -22218337.260 8627629.550 9125995.871 10 0 60196 22500.00000 0 -21063109.778 8018075.270 11978182.202 10 0 60196 23400.00000 0 -19688538.791 7121063.657 14598092.555 10 0 60196 24300.00000 0 -18153980.250 5925239.297 16934958.043 10 0 60196 25200.00000 0 -16521859.660 4431757.528 18943499.228 10 0 60196 26100.00000 0 -14855070.842 2654499.779 20584796.312 10 0 60196 27000.00000 0 -13214375.853 619756.571 21827036.769 10 0 60196 27900.00000 0 -11655914.037 -1634609.720 22646126.764 10 0 60196 28800.00000 0 -10228923.430 -4060488.800 23026155.207 10 0 60196 29700.00000 0 -8973768.780 -6601279.531 22959701.988 10 0 60196 30600.00000 0 -7920357.620 -9194008.767 22447984.617 10 0 60196 31500.00000 0 -7087009.866 -11771725.548 21500840.322 10 0 60196 32400.00000 0 -6479827.613 -14266072.774 20136543.490 10 0 60196 33300.00000 0 -6092591.172 -16609930.926 18381461.230 10 0 60196 34200.00000 0 -5907185.621 -18740024.954 16269552.736 10 0 60196 35100.00000 0 -5894540.010 -20599386.635 13841721.073 10 0 60196 36000.00000 0 -6016039.937 -22139570.174 11145028.813 10 0 60196 36900.00000 0 -6225354.186 -23322528.596 8231791.808 10 0 60196 37800.00000 0 -6470598.471 -24122072.282 5158567.939 10 0 60196 38700.00000 0 -6696744.805 -24524848.110 1985060.041 10 0 60196 39600.00000 0 -6848174.224 -24530797.625 -1227045.690 10 0 60196 40500.00000 0 -6871264.157 -24153074.490 -4415282.968 10 0 60196 41400.00000 0 -6716899.937 -23417424.321 -7517626.368 10 0 60196 42300.00000 0 -6342802.828 -22361052.788 -10473705.367 10 0 60196 43200.00000 0 -5715574.610 -21031029.700 -13225986.938 10 0 60196 44100.00000 0 -4812370.686 -19482296.495 -15720902.798 10 0 60196 45000.00000 0 -3622129.438 -17775361.444 -17909898.503 10 0 60196 45900.00000 0 -2146304.447 -15973780.043 -19750383.402 10 0 60196 46800.00000 0 -399067.337 -14141527.053 -21206562.561 10 0 60196 47700.00000 0 1593028.505 -12340371.009 -22250134.340 10 0 60196 48600.00000 0 3791910.252 -10627361.639 -22860840.130 10 0 60196 49500.00000 0 6149338.735 -9052535.546 -23026855.843 10 0 60196 50400.00000 0 8608696.333 -7656936.023 -22745017.904 10 0 60196 51300.00000 0 11107135.476 -6471029.334 -22020879.777 10 0 60196 52200.00000 0 13577998.501 -5513582.877 -20868598.349 10 0 60196 53100.00000 0 15953408.188 -4791051.070 -19310652.746 10 0 60196 54000.00000 0 18166921.275 -4297493.313 -17377401.367 10 0 60196 54900.00000 0 20156134.586 -4015025.955 -15106485.995 10 0 60196 55800.00000 0 21865135.386 -3914787.732 -12542094.791 10 0 60196 56700.00000 0 23246694.144 -3958376.536 -9734098.727 10 0 60196 57600.00000 0 24264108.678 -4099695.604 -6737078.440 10 0 60196 58500.00000 0 24892623.257 -4287130.034 -3609260.698 10 0 60196 59400.00000 0 25120364.105 -4465960.743 -411385.414 10 0 60196 60300.00000 0 24948753.054 -4580913.100 2794474.524 10 0 60196 61200.00000 0 24392382.968 -4578731.935 5946117.429 10 0 60196 62100.00000 0 23478361.077 -4410673.762 8982417.491 10 0 60196 63000.00000 0 22245148.608 -4034810.649 11844506.583 10 0 60196 63900.00000 0 20740945.990 -3418048.338 14476910.437 10 0 60196 64800.00000 0 19021691.694 -2537773.322 16828617.531 10 0 60196 65700.00000 0 17148758.595 -1383059.241 18854060.605 10 0 60196 66600.00000 0 15186444.038 44618.567 20513992.436 10 0 60196 67500.00000 0 13199357.996 1731191.047 21776239.800 10 0 60196 68400.00000 0 11249817.591 3650334.983 22616321.809 10 0 60196 69300.00000 0 9395355.792 5764331.165 23017921.358 10 0 60196 70200.00000 0 7686447.077 8025406.860 22973201.085 10 0 60196 71100.00000 0 6164543.840 10377508.299 22482957.946 10 0 60196 72000.00000 0 4860504.441 12758431.079 21556613.326 10 0 60196 72900.00000 0 3793477.647 15102221.504 20212038.426 10 0 60196 73800.00000 0 2970289.394 17341750.422 18475217.572 10 0 60196 74700.00000 0 2385357.127 19411353.640 16379754.991 10 0 60196 75600.00000 0 2021135.023 21249429.768 13966233.516 10 0 60196 76500.00000 0 1849071.330 22800887.637 11281436.532 10 0 60196 77400.00000 0 1831037.534 24019341.106 8377447.290 10 0 60196 78300.00000 0 1921169.080 24868959.226 5310642.330 10 0 60196 79200.00000 0 2068039.780 25325893.690 2140598.098 10 0 60196 80100.00000 0 2217077.678 25379222.963 -1071068.022 10 0 60196 81000.00000 0 2313119.513 25031372.709 -4261899.497 10 0 60196 81900.00000 0 2302994.776 24297994.119 -7369821.280 10 0 60196 82800.00000 0 2138028.791 23207304.731 -10334354.750 10 0 60196 83700.00000 0 1776357.500 21798919.150 -13097802.391 10 0 60196 84600.00000 0 1184954.533 20122218.762 -15606378.266 10 0 60196 85500.00000 0 341283.344 18234329.154 -17811261.440 10 0 60197 0.00000 0 -765496.738 16197790.692 -19669551.076 10 0 60197 900.00000 0 -2133823.425 14078019.338 -21145105.171 10 0 60197 1800.00000 0 -3749552.831 11940667.327 -22209244.006 10 0 60197 2700.00000 0 -5586319.805 9848990.919 -22841308.054 10 0 60197 3600.00000 0 -7606421.590 7861338.149 -23029057.162 10 0 60197 4500.00000 0 -9762188.984 6028860.401 -22768904.683 10 0 60197 5400.00000 0 -11997788.075 4393543.141 -22065982.246 10 0 60197 6300.00000 0 -14251377.609 2986637.240 -20934034.332 10 0 60197 7200.00000 0 -16457532.116 1827555.380 -19395145.097 10 0 60197 8100.00000 0 -18549829.828 923278.254 -17479303.066 10 0 60197 9000.00000 0 -20463497.479 268293.820 -15223812.409 10 0 60197 9900.00000 0 -22138001.704 -154929.576 -12672562.488 10 0 60197 10800.00000 0 -23519478.967 -374957.814 -9875170.072 10 0 60197 11700.00000 0 -24562902.721 -429936.515 -6886011.086 10 0 60197 12600.00000 0 -25233897.528 -365730.225 -3763161.018 10 0 60197 13500.00000 0 -25510124.684 -233735.084 -567264.784 10 0 60197 14400.00000 0 -25382181.912 -88458.402 2639641.675 10 0 60197 15300.00000 0 -24853980.086 15031.805 5795334.971 10 0 60197 16200.00000 0 -23942581.888 23678.977 8838609.454 10 0 60197 17100.00000 0 -22677509.778 -111077.147 11710460.684 10 0 60197 18000.00000 0 -21099552.796 -431008.152 14355224.321 10 0 60197 18900.00000 0 -19259122.466 -969093.845 16721648.763 10 0 60197 19800.00000 0 -17214226.618 -1747893.020 18763881.325 10 0 60197 20700.00000 0 -15028145.608 -2778356.874 20442349.544 10 0 60197 21600.00000 0 -12766907.413 -4059135.400 21724521.381 10 0 60197 22500.00000 0 -10496666.096 -5576406.554 22585530.433 10 0 60197 23400.00000 0 -8281091.900 -7304236.359 23008654.738 10 0 60197 24300.00000 0 -6178880.491 -9205456.141 22985640.454 10 0 60197 25200.00000 0 -4241483.837 -11233021.824 22516864.383 10 0 60197 26100.00000 0 -2511156.043 -13331800.145 21611332.103 10 0 60197 27000.00000 0 -1019394.508 -15440709.028 20286511.322 10 0 60197 27900.00000 0 214159.510 -17495124.415 18568002.943 10 0 60197 28800.00000 0 1182315.653 -19429454.515 16489055.258 10 0 60197 29700.00000 0 1890400.170 -21179775.055 14089929.583 10 0 60197 30600.00000 0 2355790.142 -22686416.088 11417128.513 10 0 60197 31500.00000 0 2606935.960 -23896392.333 8522500.808 10 0 60197 32400.00000 0 2681913.397 -24765575.085 5462239.525 10 0 60197 33300.00000 0 2626566.531 -25260514.051 2295792.358 10 0 60197 34200.00000 0 2492320.292 -25359831.809 -915294.675 10 0 60197 35100.00000 0 2333755.710 -25055131.324 -4108577.489 10 0 60197 36000.00000 0 2206051.226 -24351377.388 -7221934.245 10 0 60197 36900.00000 0 2162399.454 -23266735.046 -10194781.139 10 0 60197 37800.00000 0 2251509.968 -21831871.114 -12969259.128 10 0 60197 38700.00000 0 2515305.160 -20088747.691 -15491367.576 10 0 60197 39600.00000 0 2986908.050 -18088958.180 -17712021.906 10 0 60197 40500.00000 0 3689008.469 -15891675.693 -19588014.054 10 0 60197 41400.00000 0 4632677.859 -13561300.031 -21082856.632 10 0 60197 42300.00000 0 5816683.838 -11164902.102 -22167494.183 10 0 60197 43200.00000 0 7227334.347 -8769572.870 -22820867.787 10 0 60197 44100.00000 0 8838858.795 -6439787.741 -23030322.269 10 0 60197 45000.00000 0 10614310.782 -4234896.320 -22791848.469 10 0 60197 45900.00000 0 12506955.084 -2206841.930 -22110156.265 10 0 60197 46800.00000 0 14462081.110 -398205.266 -20998577.387 10 0 60197 47700.00000 0 16419167.149 1159347.116 -19478800.262 10 0 60197 48600.00000 0 18314304.971 2446146.068 -17580442.380 10 0 60197 49500.00000 0 20082783.439 3455091.192 -15340468.748 10 0 60197 50400.00000 0 21661723.041 4191688.066 -12802467.981 10 0 60197 51300.00000 0 22992651.159 4673551.689 -10015800.307 10 0 60197 52200.00000 0 24023910.332 4929398.855 -7034634.257 10 0 60197 53100.00000 0 24712798.784 4997573.583 -3916891.038 10 0 60197 54000.00000 0 25027353.750 4924169.323 -723117.370 10 0 60197 54900.00000 0 24947703.176 4760828.453 2484691.073 10 0 60197 55800.00000 0 24466929.493 4562313.026 5644292.496 10 0 60197 56700.00000 0 23591409.683 4383950.128 8694404.597 10 0 60197 57600.00000 0 22340617.763 4279060.225 11575889.584 10 0 60197 58500.00000 0 20746398.300 4296477.381 14232895.734 10 0 60197 59400.00000 0 18851741.515 4478266.053 16613933.720 10 0 60197 60300.00000 0 16709111.116 4857730.765 18672867.457 10 0 60197 61200.00000 0 14378394.466 5457802.531 20369800.911 10 0 60197 62100.00000 0 11924559.955 6289870.026 21671844.563 10 0 60197 63000.00000 0 9415118.399 7353104.995 22553747.467 10 0 60197 63900.00000 0 6917493.074 8634310.833 22998383.427 10 0 60197 64800.00000 0 4496406.566 10108301.607 22997082.361 10 0 60197 65700.00000 0 2211391.790 11738796.898 22549800.767 10 0 60197 66600.00000 0 114529.388 13479796.480 21665127.848 10 0 60197 67500.00000 0 -1751495.564 15277378.921 20360126.851 10 0 60197 68400.00000 0 -3354937.717 17071850.539 18660013.905 10 0 60197 69300.00000 0 -4676072.905 18800156.269 16597679.668 10 0 60197 70200.00000 0 -5707772.416 20398452.779 14213061.950 10 0 60197 71100.00000 0 -6455546.501 21804736.953 11552380.346 10 0 60197 72000.00000 0 -6937055.616 22961419.929 8667246.739 10 0 60197 72900.00000 0 -7181110.194 23817738.681 5613668.185 10 0 60197 73800.00000 0 -7226201.309 24331903.377 2450961.021 10 0 60197 74700.00000 0 -7118624.574 24472889.404 -759402.753 10 0 60197 75600.00000 0 -6910277.008 24221797.631 -3954994.168 10 0 60197 76500.00000 0 -6656220.748 23572724.476 -7073647.214 10 0 60197 77400.00000 0 -6412117.598 22533103.997 -10054675.440 10 0 60197 78300.00000 0 -6231644.098 21123506.558 -12840060.650 10 0 60197 79200.00000 0 -6163997.722 19376901.720 -15375589.687 10 0 60197 80100.00000 0 -6251600.976 17337415.742 -17611916.289 10 0 60197 81000.00000 0 -6528101.718 15058635.507 -19505526.727 10 0 60197 81900.00000 0 -7016755.313 12601529.834 -21019590.029 10 0 60197 82800.00000 0 -7729257.908 10032075.255 -22124676.041 10 0 60197 83700.00000 0 -8665080.849 7418685.572 -22799327.410 10 0 60197 84600.00000 0 -9811334.952 4829552.567 -23030474.619 10 0 60197 85500.00000 0 -11143170.790 2330008.731 -22813686.351 10 0 60198 0.00000 0 -12624698.439 -19978.174 -22153250.824 10 0 60198 900.00000 0 -14210389.065 -2168076.102 -21062086.513 10 0 60198 1800.00000 0 -15846897.698 -4071528.386 -19561485.368 10 0 60198 2700.00000 0 -17475233.384 -5698686.543 -17680692.669 10 0 60198 3600.00000 0 -19033183.782 -7030070.556 -15456332.738 10 0 60198 4500.00000 0 -20457893.248 -8058915.263 -12931691.624 10 0 60198 5400.00000 0 -21688486.071 -8791181.621 -10155870.978 10 0 60198 6300.00000 0 -22668624.809 -9245034.280 -7182829.726 10 0 60198 7200.00000 0 -23348896.302 -9449809.269 -4070332.481 10 0 60198 8100.00000 0 -23688925.300 -9444516.966 -878825.353 10 0 60198 9000.00000 0 -23659127.040 -9275944.974 2329738.735 10 0 60198 9900.00000 0 -23242025.382 -8996442.145 5493102.132 10 0 60198 10800.00000 0 -22433081.360 -8661478.267 8549908.481 10 0 60198 11700.00000 0 -21240997.571 -8327083.048 11440889.264 10 0 60198 12600.00000 0 -19687485.759 -8047272.873 14110007.955 10 0 60198 13500.00000 0 -17806507.335 -7871574.005 16505539.993 10 0 60198 14400.00000 0 -15643018.355 -7842746.603 18581068.197 10 0 60198 15300.00000 0 -13251271.033 -7994805.286 20296375.015 10 0 60198 16200.00000 0 -10692741.893 -8351419.416 21618215.169 10 0 60198 17100.00000 0 -8033771.980 -8924760.360 22520954.545 10 0 60198 18000.00000 0 -5343016.177 -9714844.377 22987063.679 10 0 60198 18900.00000 0 -2688806.346 -10709399.180 23007456.852 10 0 60198 19800.00000 0 -136536.457 -11884260.608 22581670.478 10 0 60198 20700.00000 0 2253823.063 -13204283.880 21717877.286 10 0 60198 21600.00000 0 4429979.769 -14624732.543 20432735.637 10 0 60198 22500.00000 0 6349249.877 -16093088.418 18751076.162 10 0 60198 23400.00000 0 7980085.718 -17551208.022 16705430.868 10 0 60198 24300.00000 0 9303137.027 -18937736.362 14335412.728 10 0 60198 25200.00000 0 10311802.282 -20190677.752 11686956.684 10 0 60198 26100.00000 0 11012247.358 -21250016.252 8811435.777 10 0 60198 27000.00000 0 11422891.007 -22060275.726 5764668.791 10 0 60198 27900.00000 0 11573379.031 -22572911.498 2605838.173 10 0 60198 28800.00000 0 11503090.666 -22748432.139 -603660.829 10 0 60198 29700.00000 0 11259240.631 -22558161.007 -3801417.241 10 0 60198 30600.00000 0 10894657.566 -21985561.975 -6925223.840 10 0 60198 31500.00000 0 10465333.630 -21027072.180 -9914294.493 10 0 60198 32400.00000 0 10027849.799 -19692405.388 -12710454.792 10 0 60198 33300.00000 0 9636786.905 -18004312.016 -15259281.897 10 0 60198 34200.00000 0 9342233.033 -15997804.976 -17511170.529 10 0 60198 35100.00000 0 9187493.747 -13718883.125 -19422303.728 10 0 60198 36000.00000 0 9207102.922 -11222805.368 -20955509.057 10 0 60198 36900.00000 0 9425218.970 -8571987.440 -22080983.383 10 0 60198 37800.00000 0 9854474.801 -5833609.120 -22776872.191 10 0 60198 38700.00000 0 10495330.422 -3077031.676 -23029692.418 10 0 60198 39600.00000 0 11335955.740 -371133.105 -22834590.903 10 0 60198 40500.00000 0 12352648.613 2218328.077 -22195433.895 10 0 60198 41400.00000 0 13510770.581 4631211.211 -21124726.272 10 0 60198 42300.00000 0 14766160.874 6815250.664 -19643362.454 10 0 60198 43200.00000 0 16066969.097 8727978.759 -17780214.172 10 0 60198 44100.00000 0 17355829.466 10338235.572 -15571563.369 10 0 60198 45000.00000 0 18572284.973 11627204.042 -13060391.511 10 0 60198 45900.00000 0 19655359.442 12588928.833 -10295539.327 10 0 60198 46800.00000 0 20546169.172 13230299.062 -7330753.512 10 0 60198 47700.00000 0 21190464.204 13570497.453 -4223639.212 10 0 60198 48600.00000 0 21540992.249 13639940.875 -1034538.892 10 0 60198 49500.00000 0 21559585.844 13478758.501 2174640.386 10 0 60198 50400.00000 0 21218884.928 13134873.099 5341628.208 10 0 60198 51300.00000 0 20503622.512 12661767.485 8404997.133 10 0 60198 52200.00000 0 19411419.396 12116031.150 11305350.685 10 0 60198 53100.00000 0 17953054.558 11554791.003 13986470.055 10 0 60198 54000.00000 0 16152199.716 11033134.758 16396397.676 10 0 60198 54900.00000 0 14044628.801 10601635.444 18488437.202 10 0 60198 55800.00000 0 11676934.874 10304081.058 20222051.181 10 0 60198 56700.00000 0 9104807.240 10175504.529 21563639.885 10 0 60198 57600.00000 0 6390939.487 10240596.512 22487187.009 10 0 60198 58500.00000 0 3602654.316 10512567.508 22974760.468 10 0 60198 59400.00000 0 809342.481 10992507.117 23016859.168 10 0 60198 60300.00000 0 -1920179.318 11669267.643 22612599.307 10 0 60198 61200.00000 0 -4520283.314 12519877.550 21769736.578 10 0 60198 62100.00000 0 -6931011.190 13510468.362 20504523.462 10 0 60198 63000.00000 0 -9100318.420 14597677.202 18841403.674 10 0 60198 63900.00000 0 -10985990.104 15730467.331 16812548.771 10 0 60198 64800.00000 0 -12557149.304 16852291.383 14457244.774 10 0 60198 65700.00000 0 -13795295.525 17903507.353 11821139.624 10 0 60198 66600.00000 0 -14694830.254 18823946.393 8955365.001 10 0 60198 67500.00000 0 -15263047.784 19555524.552 5915548.824 10 0 60198 68400.00000 0 -15519591.899 20044788.281 2760737.024 10 0 60198 69300.00000 0 -15495401.424 20245285.736 -447754.536 10 0 60198 70200.00000 0 -15231189.400 20119662.868 -3647535.475 10 0 60198 71100.00000 0 -14775520.491 19641394.605 -6776359.902 10 0 60198 72000.00000 0 -14182568.461 18796076.617 -9773344.463 10 0 60198 72900.00000 0 -13509649.291 17582221.745 -12580160.860 10 0 60198 73800.00000 0 -12814635.149 16011526.087 -15142178.721 10 0 60198 74700.00000 0 -12153359.534 14108592.294 -17409535.672 10 0 60198 75600.00000 0 -11577124.200 11910120.669 -19338113.186 10 0 60198 76500.00000 0 -11130414.028 9463601.172 -20890398.745 10 0 60198 77400.00000 0 -10848917.006 6825560.563 -22036217.326 10 0 60198 78300.00000 0 -10757933.318 4059437.590 -22753318.047 10 0 60198 79200.00000 0 -10871240.868 1233174.631 -23027804.776 10 0 60198 80100.00000 0 -11190465.076 -1583373.964 -22854402.661 10 0 60198 81000.00000 0 -11704979.342 -4321109.175 -22236555.867 10 0 60198 81900.00000 0 -12392340.099 -6914319.600 -21186355.004 10 0 60198 82800.00000 0 -13219237.772 -9303169.689 -19724296.091 10 0 60198 83700.00000 0 -14142923.216 -11435941.143 -17878876.053 10 0 60198 84600.00000 0 -15113049.173 -13270935.093 -15686032.905 10 0 60198 85500.00000 0 -16073848.839 -14777957.006 -13188441.724 10 0 60199 0.00000 0 -16966559.332 -15939323.653 -10434680.583 10 0 60199 900.00000 0 -17731988.170 -16750352.266 -7478281.336 10 0 60199 1800.00000 0 -18313113.143 -17219311.601 -4376687.697 10 0 60199 2700.00000 0 -18657607.455 -17366840.781 -1190136.220 10 0 60199 3600.00000 0 -18720182.344 -17224860.382 2019514.206 10 0 60199 4500.00000 0 -18464648.898 -16835023.726 5189982.767 10 0 60199 5400.00000 0 -17865612.080 -16246774.736 8259773.356 10 0 60199 6300.00000 0 -16909725.586 -15515095.104 11169363.980 10 0 60199 7200.00000 0 -15596454.651 -14698036.319 13862355.984 10 0 60199 8100.00000 0 -13938314.521 -13854140.768 16286561.163 10 0 60199 9000.00000 0 -11960574.146 -13039860.471 18395006.232 10 0 60199 9900.00000 0 -9700436.885 -12307081.757 20146835.860 10 0 60199 10800.00000 0 -7205731.554 -11700859.488 21508097.613 10 0 60199 11700.00000 0 -4533167.275 -11257455.467 22452394.416 10 0 60199 12600.00000 0 -1746223.489 -11002762.890 22961392.644 10 0 60199 13500.00000 0 1087238.643 -10951182.559 23025176.548 10 0 60199 14400.00000 0 3897545.826 -11104997.874 22642442.499 10 0 60199 15300.00000 0 6615858.075 -11454274.920 21820529.207 10 0 60199 16200.00000 0 9176781.697 -11977292.289 20575283.018 10 0 60199 17100.00000 0 11520842.650 -12641483.266 18930760.178 10 0 60199 18000.00000 0 13596718.517 -13404851.663 16918770.915 10 0 60199 18900.00000 0 15363137.056 -14217802.732 14578273.103 10 0 60199 19800.00000 0 16790362.719 -15025312.963 11954626.105 10 0 60199 20700.00000 0 17861209.381 -15769348.079 9098718.309 10 0 60199 21600.00000 0 18571537.016 -16391427.627 6065984.445 10 0 60199 22500.00000 0 18930211.585 -16835227.954 2915331.263 10 0 60199 23400.00000 0 18958529.805 -17049113.181 -292007.700 10 0 60199 24300.00000 0 18689133.169 -16988486.463 -3493665.792 10 0 60199 25200.00000 0 18164457.224 -16617860.969 -6627361.674 10 0 60199 26100.00000 0 17434781.953 -15912561.692 -9632117.983 10 0 60199 27000.00000 0 16555966.202 -14859984.683 -12449455.649 10 0 60199 27900.00000 0 15586962.573 -13460359.000 -15024539.701 10 0 60199 28800.00000 0 14587218.593 -11726977.787 -17307253.386 10 0 60199 29700.00000 0 13614074.720 -9685887.460 -19253179.028 10 0 60199 30600.00000 0 12720269.775 -7375046.917 -20824466.097 10 0 60199 31500.00000 0 11951659.584 -4842991.178 -21990569.356 10 0 60199 32400.00000 0 11345245.408 -2147054.726 -22728842.784 10 0 60199 33300.00000 0 10927595.274 648771.744 -23024977.927 10 0 60199 34200.00000 0 10713724.598 3476262.067 -22873278.514 10 0 60199 35100.00000 0 10706482.796 6265552.323 -22276766.416 10 0 60199 36000.00000 0 10896471.169 8947807.716 -21247117.314 10 0 60199 36900.00000 0 11262494.818 11457848.032 -19804427.748 10 0 60199 37800.00000 0 11772528.838 13736622.960 -17976818.379 10 0 60199 38700.00000 0 12385157.340 15733435.013 -15799881.466 10 0 60199 39600.00000 0 13051423.956 17407818.284 -13315983.542 10 0 60199 40500.00000 0 13717015.180 18730995.869 -10573437.052 10 0 60199 41400.00000 0 14324683.916 19686856.396 -7625557.256 10 0 60199 42300.00000 0 14816810.520 20272410.270 -4529623.001 10 0 60199 43200.00000 0 15137992.894 20497708.108 -1345761.813 10 0 60199 44100.00000 0 15237556.061 20385226.323 1864218.779 10 0 60199 45000.00000 0 15071875.140 19968747.161 5038030.721 10 0 60199 45900.00000 0 14606413.574 19291781.546 8114112.264 10 0 60199 46800.00000 0 13817390.600 18405602.128 11032818.727 10 0 60199 47700.00000 0 12693007.533 17366970.024 13737574.166 10 0 60199 48600.00000 0 11234181.035 16235651.237 16175961.994 10 0 60199 49500.00000 0 9454752.115 15071827.261 18300733.917 10 0 60199 50400.00000 0 7381161.450 13933508.403 20070718.333 10 0 60199 51300.00000 0 5051603.692 12874057.937 21451611.369 10 0 60199 52200.00000 0 2514694.913 11939930.284 22416636.105 10 0 60199 53100.00000 0 -172292.645 11168717.356 22947057.918 10 0 60199 54000.00000 0 -2945556.609 10587584.220 23032546.568 10 0 60199 54900.00000 0 -5737164.607 10212159.092 22671378.325 10 0 60199 55800.00000 0 -8477630.457 10045923.853 21870474.202 10 0 60199 56700.00000 0 -11098561.012 10080130.543 20645273.236 10 0 60199 57600.00000 0 -13535265.202 10294247.563 19019442.574 10 0 60199 58500.00000 0 -15729217.919 10656917.269 17024429.082 10 0 60199 59400.00000 0 -17630277.161 11127385.304 14698860.093 10 0 60199 60300.00000 0 -19198562.575 11657342.138 12087803.759 10 0 60199 61200.00000 0 -20405917.254 12193099.790 9241902.362 10 0 60199 62100.00000 0 -21236891.711 12678012.240 6216394.572 10 0 60199 63000.00000 0 -21689208.678 13055037.378 3070045.095 10 0 60199 63900.00000 0 -21773689.073 13269331.888 -135997.652 10 0 60199 64800.00000 0 -21513642.103 13270768.631 -3339393.440 10 0 60199 65700.00000 0 -20943745.215 13016269.002 -6477828.065 10 0 60199 66600.00000 0 -20108461.258 12471850.251 -9490232.598 10 0 60199 67500.00000 0 -19060060.004 11614299.716 -12317979.474 10 0 60199 68400.00000 0 -17856328.049 10432403.607 -14906031.206 10 0 60199 69300.00000 0 -16558064.379 8927676.934 -17204018.486 10 0 60199 70200.00000 0 -15226467.968 7114562.315 -19167226.006 10 0 60199 71100.00000 0 -13920528.154 5020087.997 -20757466.396 10 0 60199 72000.00000 0 -12694528.317 2682998.345 -21943825.006 10 0 60199 72900.00000 0 -11595768.214 152392.327 -22703261.087 10 0 60199 73800.00000 0 -10662600.857 -2514073.755 -23021053.903 10 0 60199 74700.00000 0 -9922866.263 -5252344.745 -22891085.422 10 0 60199 75600.00000 0 -9392787.380 -7994396.708 -22315954.527 10 0 60199 76500.00000 0 -9076373.835 -10670837.755 -21306920.952 10 0 60199 77400.00000 0 -8965357.647 -13213571.601 -19883680.426 10 0 60199 78300.00000 0 -9039662.533 -15558413.438 -18073975.754 10 0 60199 79200.00000 0 -9268385.951 -17647549.691 -15913051.641 10 0 60199 80100.00000 0 -9611251.461 -19431739.831 -13442964.128 10 0 60199 81000.00000 0 -10020469.164 -20872169.244 -10711758.252 10 0 60199 81900.00000 0 -10442924.870 -21941876.834 -7772530.119 10 0 60199 82800.00000 0 -10822604.847 -22626698.811 -4682391.891 10 0 60199 83700.00000 0 -11103153.150 -22925690.450 -1501360.041 10 0 60199 84600.00000 0 -11230453.046 -22851009.505 1708811.266 10 0 60199 85500.00000 0 -11155123.165 -22427267.476 4885828.732 99